When you browse on this site, cookies collect data to enhance your experience and personalize the content and advertising you see.
Visit our Privacy Policy to learn more. By continuing to use the site, you agree to this use of cookies and data.
  • In Hungary
  • List of Countries
  • For 7 days
  • Water Temperature
  • Satellite Maps
  • Weather Map
  • News
  • Weather Widgets
  • user-avatar
    Login

    Hourly Weather Dinagepoor

    Today, 21 April, Sunday

    Time Temperature Precipitation Wind Pressure Humidity
    00:00 +30°C° 0 mm 1 mps 751 mmHg 34%
    01:00 +30°C° 0 mm 1 mps 751 mmHg 35%
    02:00 +30°C° 0 mm 1 mps 751 mmHg 37%
    03:00 +29°C° 0 mm 1 mps 751 mmHg 39%
    04:00 +29°C° 0 mm 1 mps 751 mmHg 41%
    05:00 +28°C° 0 mm 2 mps 751 mmHg 44%
    06:00 +27°C° 0 mm 2 mps 752 mmHg 46%
    07:00 +29°C° 0 mm 3 mps 752 mmHg 43%
    08:00 +31°C° 0 mm 3 mps 752 mmHg 40%
    09:00 +34°C° 0 mm 3 mps 752 mmHg 37%
    10:00 +36°C° 0 mm 3 mps 752 mmHg 33%
    11:00 +37°C° 0 mm 2 mps 752 mmHg 28%
    12:00 +39°C° 0 mm 1 mps 752 mmHg 24%
    13:00 +40°C° 0 mm 2 mps 751 mmHg 22%
    14:00 +40°C° 0 mm 2 mps 751 mmHg 20%
    15:00 +42°C° 0 mm 3 mps 750 mmHg 18%
    16:00 +40°C° 0 mm 2 mps 750 mmHg 19%
    17:00 +39°C° 0 mm 1 mps 749 mmHg 21%
    18:00 +39°C° 0 mm 1 mps 749 mmHg 22%
    19:00 +37°C° 0 mm 1 mps 749 mmHg 24%
    20:00 +36°C° 0 mm 1 mps 749 mmHg 25%
    21:00 +36°C° 0 mm 2 mps 749 mmHg 26%
    22:00 +35°C° 0 mm 2 mps 750 mmHg 30%
    23:00 +34°C° 0 mm 3 mps 750 mmHg 34%

    Tomorrow, 22 April, Monday

    Time Temperature Precipitation Wind Pressure Humidity
    00:00 +32°C° 0 mm 4 mps 750 mmHg 38%
    01:00 +31°C° 0 mm 3 mps 750 mmHg 41%
    02:00 +30°C° 0 mm 3 mps 750 mmHg 43%
    03:00 +29°C° 0 mm 2 mps 750 mmHg 46%
    04:00 +29°C° 0 mm 2 mps 750 mmHg 48%
    05:00 +28°C° 0 mm 2 mps 751 mmHg 49%
    06:00 +28°C° 0 mm 2 mps 751 mmHg 51%
    07:00 +30°C° 0 mm 3 mps 752 mmHg 47%
    08:00 +33°C° 0 mm 3 mps 752 mmHg 43%
    09:00 +34°C° 0 mm 3 mps 753 mmHg 39%
    10:00 +36°C° 0.1 mm 3 mps 752 mmHg 36%
    11:00 +37°C° 0.1 mm 2 mps 752 mmHg 33%
    12:00 +38°C° 0.1 mm 2 mps 752 mmHg 31%
    13:00 +39°C° 0 mm 2 mps 751 mmHg 29%
    14:00 +40°C° 0 mm 1 mps 751 mmHg 27%
    15:00 +41°C° 0 mm 1 mps 750 mmHg 25%
    16:00 +40°C° 0 mm 1 mps 750 mmHg 26%
    17:00 +39°C° 0 mm 1 mps 749 mmHg 28%
    18:00 +39°C° 0 mm 1 mps 749 mmHg 29%
    19:00 +38°C° 0 mm 2 mps 750 mmHg 31%
    20:00 +37°C° 0 mm 2 mps 751 mmHg 33%
    21:00 +36°C° 0 mm 3 mps 751 mmHg 34%
    22:00 +35°C° 0 mm 4 mps 751 mmHg 37%
    23:00 +34°C° 0 mm 4 mps 752 mmHg 39%

    Day after tomorrow, 23 April, Tuesday

    Time Temperature Precipitation Wind Pressure Humidity
    00:00 +33°C° 0 mm 5 mps 752 mmHg 41%
    01:00 +32°C° 0 mm 5 mps 751 mmHg 45%
    02:00 +30°C° 0 mm 5 mps 751 mmHg 48%
    03:00 +30°C° 0 mm 5 mps 751 mmHg 51%
    04:00 +29°C° 0 mm 4 mps 751 mmHg 54%
    05:00 +29°C° 0 mm 4 mps 752 mmHg 58%
    06:00 +28°C° 0 mm 4 mps 752 mmHg 61%
    07:00 +30°C° 0 mm 4 mps 752 mmHg 57%
    08:00 +32°C° 0 mm 5 mps 753 mmHg 53%
    09:00 +33°C° 0 mm 5 mps 754 mmHg 48%
    10:00 +35°C° 0 mm 5 mps 754 mmHg 44%
    11:00 +37°C° 0 mm 4 mps 753 mmHg 40%
    12:00 +38°C° 0 mm 4 mps 753 mmHg 36%
    13:00 +39°C° 0 mm 3 mps 752 mmHg 34%
    14:00 +40°C° 0 mm 3 mps 751 mmHg 31%
    15:00 +41°C° 0 mm 2 mps 751 mmHg 28%
    16:00 +40°C° 1.1 mm 4 mps 751 mmHg 32%
    17:00 +38°C° 1.1 mm 6 mps 750 mmHg 35%
    18:00 +35°C° 1.1 mm 7 mps 750 mmHg 38%
    19:00 +34°C° 0.1 mm 5 mps 751 mmHg 38%
    20:00 +34°C° 0.1 mm 3 mps 752 mmHg 37%
    21:00 +33°C° 0.1 mm 1 mps 753 mmHg 36%
    22:00 +34°C° 0 mm 2 mps 753 mmHg 39%
    23:00 +32°C° 0 mm 2 mps 753 mmHg 43%

    24 April, Wednesday

    Time Temperature Precipitation Wind Pressure Humidity
    00:00 +31°C° 0 mm 3 mps 753 mmHg 46%
    01:00 +31°C° 0 mm 3 mps 753 mmHg 50%
    02:00 +30°C° 0 mm 2 mps 753 mmHg 55%
    03:00 +30°C° 0 mm 2 mps 752 mmHg 59%
    04:00 +29°C° 0 mm 2 mps 753 mmHg 61%
    05:00 +29°C° 0 mm 3 mps 753 mmHg 63%
    06:00 +29°C° 0 mm 3 mps 753 mmHg 65%
    07:00 +30°C° 0 mm 3 mps 754 mmHg 58%
    08:00 +33°C° 0 mm 4 mps 754 mmHg 52%
    09:00 +35°C° 0 mm 4 mps 755 mmHg 45%
    10:00 +37°C° 0 mm 4 mps 755 mmHg 41%
    11:00 +38°C° 0 mm 3 mps 754 mmHg 37%
    12:00 +39°C° 0 mm 3 mps 754 mmHg 32%
    13:00 +40°C° 0 mm 2 mps 753 mmHg 30%
    14:00 +41°C° 0 mm 2 mps 752 mmHg 27%
    15:00 +42°C° 0 mm 2 mps 751 mmHg 25%
    16:00 +41°C° 0 mm 1 mps 751 mmHg 26%
    17:00 +41°C° 0 mm 1 mps 750 mmHg 27%
    18:00 +38°C° 0 mm 0 mps 750 mmHg 28%
    19:00 +39°C° 0 mm 1 mps 751 mmHg 30%
    20:00 +38°C° 0 mm 2 mps 751 mmHg 33%
    21:00 +36°C° 0 mm 3 mps 752 mmHg 35%
    22:00 +36°C° 0 mm 4 mps 752 mmHg 38%
    23:00 +35°C° 0 mm 4 mps 752 mmHg 41%

    25 April, Thursday

    Time Temperature Precipitation Wind Pressure Humidity
    00:00 +34°C° 0 mm 4 mps 752 mmHg 43%
    01:00 +34°C° 0 mm 3 mps 752 mmHg 45%
    02:00 +33°C° 0 mm 3 mps 751 mmHg 46%
    03:00 +31°C° 0 mm 2 mps 751 mmHg 47%
    04:00 +31°C° 0.1 mm 2 mps 752 mmHg 49%
    05:00 +30°C° 0.1 mm 2 mps 752 mmHg 51%
    06:00 +30°C° 0.1 mm 2 mps 752 mmHg 54%
    07:00 +32°C° 0 mm 2 mps 753 mmHg 50%
    08:00 +35°C° 0 mm 2 mps 754 mmHg 46%
    09:00 +36°C° 0 mm 2 mps 754 mmHg 42%
    10:00 +38°C° 0 mm 2 mps 754 mmHg 38%
    11:00 +39°C° 0 mm 3 mps 753 mmHg 33%
    12:00 +42°C° 0 mm 3 mps 753 mmHg 29%
    13:00 +43°C° 0 mm 3 mps 752 mmHg 27%
    14:00 +43°C° 0 mm 3 mps 751 mmHg 24%
    15:00 +44°C° 0 mm 3 mps 750 mmHg 21%
    16:00 +43°C° 0 mm 2 mps 749 mmHg 22%
    17:00 +42°C° 0 mm 2 mps 749 mmHg 23%
    18:00 +42°C° 0 mm 1 mps 749 mmHg 24%
    19:00 +40°C° 0 mm 2 mps 749 mmHg 25%
    20:00 +39°C° 0 mm 2 mps 750 mmHg 27%
    21:00 +38°C° 0 mm 3 mps 750 mmHg 28%
    22:00 +37°C° 0 mm 3 mps 750 mmHg 32%
    23:00 +36°C° 0 mm 3 mps 751 mmHg 35%

    26 April, Friday

    Time Temperature Precipitation Wind Pressure Humidity
    00:00 +35°C° 0 mm 3 mps 751 mmHg 39%
    01:00 +35°C° 0 mm 2 mps 750 mmHg 41%
    02:00 +34°C° 0 mm 2 mps 750 mmHg 44%
    03:00 +32°C° 0 mm 2 mps 750 mmHg 46%
    04:00 +32°C° 0 mm 2 mps 750 mmHg 48%
    05:00 +31°C° 0 mm 2 mps 750 mmHg 49%
    06:00 +31°C° 0 mm 2 mps 750 mmHg 51%
    07:00 +34°C° 0 mm 3 mps 751 mmHg 48%
    08:00 +35°C° 0 mm 4 mps 751 mmHg 45%
    09:00 +37°C° 0 mm 4 mps 752 mmHg 42%
    10:00 +38°C° 0 mm 4 mps 752 mmHg 38%
    11:00 +40°C° 0 mm 4 mps 751 mmHg 35%
    12:00 +42°C° 0 mm 3 mps 751 mmHg 32%
    13:00 +42°C° 0 mm 3 mps 750 mmHg 30%
    14:00 +42°C° 0 mm 2 mps 749 mmHg 28%
    15:00 +43°C° 0 mm 1 mps 748 mmHg 26%
    16:00 +43°C° 0 mm 1 mps 748 mmHg 27%
    17:00 +42°C° 0 mm 1 mps 748 mmHg 28%
    18:00 +42°C° 0 mm 1 mps 748 mmHg 28%
    19:00 +41°C° 0 mm 2 mps 749 mmHg 30%
    20:00 +39°C° 0 mm 3 mps 749 mmHg 32%
    21:00 +38°C° 0 mm 4 mps 750 mmHg 34%
    22:00 +37°C° 0 mm 4 mps 750 mmHg 36%
    23:00 +36°C° 0 mm 4 mps 750 mmHg 38%
    Show more